Time,TemperatureF,DewpointF,PressureIn,WindDirection,WindDirectionDegrees,WindSpeedMPH,WindSpeedGustMPH,Humidity,HourlyPrecipIn,Conditions,Clouds,dailyrainin,SoftwareType,DateUTC
2013-01-14 00:02:00,-999.0,-99.9,-100.00,East,97,6.0,7.0,-999,-99.99,,,-99.99,,2013-01-14 08:02:00,
2013-01-14 00:12:00,-999.0,-99.9,-100.00,ENE,72,7.0,10.0,-999,-99.99,,,-99.99,,2013-01-14 08:12:00,
2013-01-14 00:22:00,33.0,-99.9,-100.00,East,85,6.0,8.0,-999,-99.99,,,-99.99,,2013-01-14 08:22:00,
2013-01-14 00:33:00,-999.0,-99.9,-100.00,ENE,67,7.0,8.0,-999,-99.99,,,-99.99,,2013-01-14 08:33:00,
2013-01-14 00:43:00,32.0,-99.9,-100.00,ENE,76,8.0,11.0,-999,-99.99,,,-99.99,,2013-01-14 08:43:00,
2013-01-14 00:53:00,-999.0,-99.9,-100.00,East,79,6.0,8.0,-999,-99.99,,,-99.99,,2013-01-14 08:53:00,
2013-01-14 01:03:00,-999.0,-99.9,-100.00,ENE,69,6.0,8.0,-999,-99.99,,,-99.99,,2013-01-14 09:03:00,
2013-01-14 01:12:00,-999.0,-99.9,-100.00,ENE,60,8.0,9.0,-999,-99.99,,,-99.99,,2013-01-14 09:12:00,
2013-01-14 01:23:00,32.0,-99.9,-100.00,ENE,73,8.0,10.0,-999,-99.99,,,-99.99,,2013-01-14 09:23:00,
2013-01-14 01:34:00,-999.0,-99.9,-100.00,ENE,72,8.0,10.0,-999,-99.99,,,-99.99,,2013-01-14 09:34:00,
2013-01-14 01:43:00,32.0,-99.9,-100.00,East,81,7.0,9.0,-999,-99.99,,,-99.99,,2013-01-14 09:43:00,
2013-01-14 01:53:00,-999.0,-99.9,-100.00,ENE,69,9.0,10.0,-999,-99.99,,,-99.99,,2013-01-14 09:53:00,
2013-01-14 02:03:00,-999.0,-99.9,-100.00,ENE,75,8.0,10.0,-999,-99.99,,,-99.99,,2013-01-14 10:03:00,
2013-01-14 02:12:00,-999.0,-99.9,-100.00,ENE,74,8.0,10.0,-999,-99.99,,,-99.99,,2013-01-14 10:12:00,
2013-01-14 02:23:00,32.0,-99.9,-100.00,East,84,8.0,9.0,-999,-99.99,,,-99.99,,2013-01-14 10:23:00,
2013-01-14 02:33:00,-999.0,-99.9,-100.00,East,91,7.0,9.0,-999,-99.99,,,-99.99,,2013-01-14 10:33:00,
2013-01-14 02:43:00,33.0,-99.9,-100.00,East,96,8.0,10.0,-999,-99.99,,,-99.99,,2013-01-14 10:43:00,
2013-01-14 02:53:00,-999.0,-99.9,-100.00,East,100,7.0,8.0,-999,-99.99,,,-99.99,,2013-01-14 10:53:00,
2013-01-14 03:02:00,-999.0,-99.9,-100.00,ESE,110,6.0,8.0,-999,-99.99,,,-99.99,,2013-01-14 11:02:00,
2013-01-14 03:12:00,-999.0,-99.9,-100.00,ESE,111,7.0,10.0,-999,-99.99,,,-99.99,,2013-01-14 11:12:00,
2013-01-14 03:23:00,34.0,-99.9,-100.00,ESE,116,7.0,9.0,-999,-99.99,,,-99.99,,2013-01-14 11:23:00,
2013-01-14 03:33:00,-999.0,-99.9,-100.00,ESE,109,9.0,10.0,-999,-99.99,,,-99.99,,2013-01-14 11:33:00,
2013-01-14 03:43:00,34.0,-99.9,-100.00,ESE,106,8.0,10.0,-999,-99.99,,,-99.99,,2013-01-14 11:43:00,
2013-01-14 03:53:00,-999.0,-99.9,-100.00,East,97,6.0,8.0,-999,-99.99,,,-99.99,,2013-01-14 11:53:00,
2013-01-14 04:03:00,-999.0,-99.9,-100.00,East,81,6.0,8.0,-999,-99.99,,,-99.99,,2013-01-14 12:03:00,
2013-01-14 04:12:00,-999.0,-99.9,-100.00,East,98,6.0,7.0,-999,-99.99,,,-99.99,,2013-01-14 12:12:00,
2013-01-14 04:23:00,33.0,-99.9,-100.00,East,90,6.0,8.0,-999,-99.99,,,-99.99,,2013-01-14 12:23:00,
2013-01-14 04:33:00,-999.0,-99.9,-100.00,East,85,5.0,7.0,-999,-99.99,,,-99.99,,2013-01-14 12:33:00,
2013-01-14 04:43:00,33.0,-99.9,-100.00,East,80,6.0,7.0,-999,-99.99,,,-99.99,,2013-01-14 12:43:00,
2013-01-14 04:53:00,-999.0,-99.9,-100.00,East,85,6.0,7.0,-999,-99.99,,,-99.99,,2013-01-14 12:53:00,
2013-01-14 05:03:00,-999.0,-99.9,-100.00,ENE,78,6.0,7.0,-999,-99.99,,,-99.99,,2013-01-14 13:03:00,
2013-01-14 05:13:00,33.0,-99.9,-100.00,East,81,7.0,8.0,-999,-99.99,,,-99.99,,2013-01-14 13:13:00,
2013-01-14 05:23:00,-999.0,-99.9,-100.00,ENE,64,9.0,10.0,-999,-99.99,,,-99.99,,2013-01-14 13:23:00,
2013-01-14 05:34:00,-999.0,-99.9,-100.00,East,84,7.0,10.0,-999,-99.99,,,-99.99,,2013-01-14 13:34:00,
2013-01-14 05:43:00,32.0,-99.9,-100.00,ENE,73,8.0,10.0,-999,-99.99,,,-99.99,,2013-01-14 13:43:00,
2013-01-14 05:53:00,-999.0,-99.9,-100.00,East,81,9.0,11.0,-999,-99.99,,,-99.99,,2013-01-14 13:53:00,
2013-01-14 06:03:00,-999.0,-99.9,-100.00,East,82,8.0,9.0,-999,-99.99,,,-99.99,,2013-01-14 14:03:00,
2013-01-14 06:13:00,-999.0,-99.9,-100.00,East,99,7.0,8.0,-999,-99.99,,,-99.99,,2013-01-14 14:13:00,
2013-01-14 06:23:00,33.0,-99.9,-100.00,East,93,7.0,9.0,-999,-99.99,,,-99.99,,2013-01-14 14:23:00,
2013-01-14 06:33:00,-999.0,-99.9,-100.00,East,92,7.0,9.0,-999,-99.99,,,-99.99,,2013-01-14 14:33:00,
2013-01-14 06:43:00,33.0,-99.9,-100.00,East,96,8.0,10.0,-999,-99.99,,,-99.99,,2013-01-14 14:43:00,
2013-01-14 06:53:00,-999.0,-99.9,-100.00,ESE,102,8.0,10.0,-999,-99.99,,,-99.99,,2013-01-14 14:53:00,
2013-01-14 07:04:00,-999.0,-99.9,-100.00,East,94,8.0,10.0,-999,-99.99,,,-99.99,,2013-01-14 15:04:00,
2013-01-14 07:12:00,-999.0,-99.9,-100.00,ESE,104,9.0,11.0,-999,-99.99,,,-99.99,,2013-01-14 15:12:00,
2013-01-14 07:24:00,33.0,-99.9,-100.00,East,101,9.0,12.0,-999,-99.99,,,-99.99,,2013-01-14 15:24:00,
2013-01-14 07:34:00,-999.0,-99.9,-100.00,East,96,8.0,11.0,-999,-99.99,,,-99.99,,2013-01-14 15:34:00,
2013-01-14 07:43:00,33.0,-99.9,-100.00,East,95,8.0,10.0,-999,-99.99,,,-99.99,,2013-01-14 15:43:00,
2013-01-14 07:54:00,-999.0,-99.9,-100.00,East,90,9.0,11.0,-999,-99.99,,,-99.99,,2013-01-14 15:54:00,
2013-01-14 08:03:00,-999.0,-99.9,-100.00,East,89,8.0,10.0,-999,-99.99,,,-99.99,,2013-01-14 16:03:00,
2013-01-14 08:13:00,-999.0,-99.9,-100.00,East,90,7.0,9.0,-999,-99.99,,,-99.99,,2013-01-14 16:13:00,
2013-01-14 08:23:00,33.0,-99.9,-100.00,East,79,7.0,10.0,-999,-99.99,,,-99.99,,2013-01-14 16:23:00,
2013-01-14 08:33:00,-999.0,-99.9,-100.00,East,98,7.0,9.0,-999,-99.99,,,-99.99,,2013-01-14 16:33:00,
2013-01-14 08:43:00,33.0,-99.9,-100.00,East,90,7.0,9.0,-999,-99.99,,,-99.99,,2013-01-14 16:43:00,
2013-01-14 08:54:00,-999.0,-99.9,-100.00,East,88,8.0,10.0,-999,-99.99,,,-99.99,,2013-01-14 16:54:00,
2013-01-14 09:03:00,-999.0,-99.9,-100.00,East,80,8.0,9.0,-999,-99.99,,,-99.99,,2013-01-14 17:03:00,
2013-01-14 09:12:00,-999.0,-99.9,-100.00,ENE,68,9.0,10.0,-999,-99.99,,,-99.99,,2013-01-14 17:12:00,
2013-01-14 09:23:00,32.0,-99.9,-100.00,ENE,65,10.0,11.0,-999,-99.99,,,-99.99,,2013-01-14 17:23:00,
2013-01-14 09:34:00,-999.0,-99.9,-100.00,ENE,73,9.0,10.0,-999,-99.99,,,-99.99,,2013-01-14 17:34:00,
2013-01-14 09:44:00,32.0,-99.9,-100.00,ENE,76,9.0,12.0,-999,-99.99,,,-99.99,,2013-01-14 17:44:00,
2013-01-14 09:54:00,-999.0,-99.9,-100.00,ENE,77,8.0,10.0,-999,-99.99,,,-99.99,,2013-01-14 17:54:00,
2013-01-14 10:03:00,-999.0,-99.9,-100.00,ENE,76,9.0,11.0,-999,-99.99,,,-99.99,,2013-01-14 18:03:00,
2013-01-14 10:13:00,32.0,-99.9,-100.00,ENE,78,9.0,10.0,-999,-99.99,,,-99.99,,2013-01-14 18:13:00,
2013-01-14 10:23:00,-999.0,-99.9,-100.00,East,82,8.0,9.0,-999,-99.99,,,-99.99,,2013-01-14 18:23:00,
2013-01-14 10:33:00,-999.0,-99.9,-100.00,East,82,9.0,10.0,-999,-99.99,,,-99.99,,2013-01-14 18:33:00,
2013-01-14 10:43:00,-999.0,-99.9,-100.00,ENE,78,10.0,12.0,-999,-99.99,,,-99.99,,2013-01-14 18:43:00,
2013-01-14 10:53:00,32.0,-99.9,-100.00,East,79,10.0,13.0,-999,-99.99,,,-99.99,,2013-01-14 18:53:00,
2013-01-14 11:03:00,-999.0,-99.9,-100.00,ENE,78,9.0,13.0,-999,-99.99,,,-99.99,,2013-01-14 19:03:00,
2013-01-14 11:13:00,32.0,-99.9,-100.00,East,83,9.0,12.0,-999,-99.99,,,-99.99,,2013-01-14 19:13:00,
2013-01-14 11:22:00,-999.0,-99.9,-100.00,East,93,9.0,12.0,-999,-99.99,,,-99.99,,2013-01-14 19:22:00,
2013-01-14 11:33:00,-999.0,-99.9,-100.00,East,84,9.0,12.0,-999,-99.99,,,-99.99,,2013-01-14 19:33:00,
2013-01-14 11:43:00,-999.0,-99.9,-100.00,East,83,8.0,10.0,-999,-99.99,,,-99.99,,2013-01-14 19:43:00,
2013-01-14 11:53:00,32.0,-99.9,-100.00,ENE,76,8.0,11.0,-999,-99.99,,,-99.99,,2013-01-14 19:53:00,
2013-01-14 12:04:00,-999.0,-99.9,-100.00,ENE,75,9.0,11.0,-999,-99.99,,,-99.99,,2013-01-14 20:04:00,
2013-01-14 12:13:00,32.0,-99.9,-100.00,ENE,76,9.0,10.0,-999,-99.99,,,-99.99,,2013-01-14 20:13:00,
2013-01-14 12:23:00,-999.0,-99.9,-100.00,East,83,8.0,10.0,-999,-99.99,,,-99.99,,2013-01-14 20:23:00,
2013-01-14 12:34:00,-999.0,-99.9,-100.00,East,89,8.0,10.0,-999,-99.99,,,-99.99,,2013-01-14 20:34:00,
2013-01-14 12:43:00,32.0,-99.9,-100.00,East,87,9.0,11.0,-999,-99.99,,,-99.99,,2013-01-14 20:43:00,
2013-01-14 12:53:00,-999.0,-99.9,-100.00,East,89,9.0,11.0,-999,-99.99,,,-99.99,,2013-01-14 20:53:00,
2013-01-14 13:03:00,-999.0,-99.9,-100.00,East,98,10.0,12.0,-999,-99.99,,,-99.99,,2013-01-14 21:03:00,
2013-01-14 13:13:00,33.0,-99.9,-100.00,East,101,9.0,11.0,-999,-99.99,,,-99.99,,2013-01-14 21:13:00,
2013-01-14 13:23:00,-999.0,-99.9,-100.00,ESE,104,9.0,10.0,-999,-99.99,,,-99.99,,2013-01-14 21:23:00,
2013-01-14 13:33:00,-999.0,-99.9,-100.00,ESE,108,8.0,11.0,-999,-99.99,,,-99.99,,2013-01-14 21:33:00,
2013-01-14 13:43:00,34.0,-99.9,-100.00,ESE,107,9.0,11.0,-999,-99.99,,,-99.99,,2013-01-14 21:43:00,
2013-01-14 13:53:00,33.0,-99.9,-100.00,East,100,9.0,11.0,-999,-99.99,,,-99.99,,2013-01-14 21:53:00,
2013-01-14 14:03:00,-999.0,-99.9,-100.00,East,101,8.0,11.0,-999,-99.99,,,-99.99,,2013-01-14 22:03:00,
2013-01-14 14:13:00,-999.0,-99.9,-100.00,ESE,113,9.0,11.0,-999,-99.99,,,-99.99,,2013-01-14 22:13:00,
2013-01-14 14:23:00,34.0,-99.9,-100.00,ESE,119,7.0,10.0,-999,-99.99,,,-99.99,,2013-01-14 22:23:00,
2013-01-14 14:33:00,-999.0,-99.9,-100.00,ESE,105,8.0,11.0,-999,-99.99,,,-99.99,,2013-01-14 22:33:00,
2013-01-14 14:43:00,34.0,-99.9,-100.00,ESE,110,7.0,9.0,-999,-99.99,,,-99.99,,2013-01-14 22:43:00,
2013-01-14 14:53:00,34.0,-99.9,-100.00,ESE,105,7.0,9.0,-999,-99.99,,,-99.99,,2013-01-14 22:53:00,
2013-01-14 15:03:00,-999.0,-99.9,-100.00,ESE,114,10.0,13.0,-999,-99.99,,,-99.99,,2013-01-14 23:03:00,
2013-01-14 15:12:00,34.0,-99.9,-100.00,ESE,110,9.0,12.0,-999,-99.99,,,-99.99,,2013-01-14 23:12:00,
2013-01-14 15:23:00,-999.0,-99.9,-100.00,ESE,103,10.0,12.0,-999,-99.99,,,-99.99,,2013-01-14 23:23:00,
2013-01-14 15:33:00,-999.0,-99.9,-100.00,East,98,9.0,12.0,-999,-99.99,,,-99.99,,2013-01-14 23:33:00,
2013-01-14 15:43:00,34.0,-99.9,-100.00,ESE,112,8.0,13.0,-999,-99.99,,,-99.99,,2013-01-14 23:43:00,
2013-01-14 15:53:00,35.0,-99.9,-100.00,ESE,117,9.0,11.0,-999,-99.99,,,-99.99,,2013-01-14 23:53:00,
2013-01-14 16:03:00,-999.0,-99.9,-100.00,ESE,105,9.0,12.0,-999,-99.99,,,-99.99,,2013-01-15 00:03:00,
2013-01-14 16:12:00,34.0,-99.9,-100.00,East,95,9.0,13.0,-999,-99.99,,,-99.99,,2013-01-15 00:12:00,
2013-01-14 16:23:00,-999.0,-99.9,-100.00,East,83,7.0,10.0,-999,-99.99,,,-99.99,,2013-01-15 00:23:00,
2013-01-14 16:33:00,-999.0,-99.9,-100.00,ENE,73,6.0,8.0,-999,-99.99,,,-99.99,,2013-01-15 00:33:00,
2013-01-14 16:43:00,-999.0,-99.9,-100.00,ENE,69,8.0,10.0,-999,-99.99,,,-99.99,,2013-01-15 00:43:00,
2013-01-14 16:53:00,35.0,-99.9,-100.00,ESE,119,9.0,14.0,-999,-99.99,,,-99.99,,2013-01-15 00:53:00,
2013-01-14 17:02:00,-999.0,-99.9,-100.00,East,89,7.0,9.0,-999,-99.99,,,-99.99,,2013-01-15 01:02:00,
2013-01-14 17:12:00,33.0,-99.9,-100.00,East,88,8.0,11.0,-999,-99.99,,,-99.99,,2013-01-15 01:12:00,
2013-01-14 17:23:00,-999.0,-99.9,-100.00,East,85,7.0,10.0,-999,-99.99,,,-99.99,,2013-01-15 01:23:00,
2013-01-14 17:33:00,-999.0,-99.9,-100.00,ENE,76,8.0,10.0,-999,-99.99,,,-99.99,,2013-01-15 01:33:00,
2013-01-14 17:43:00,33.0,-99.9,-100.00,ENE,74,7.0,9.0,-999,-99.99,,,-99.99,,2013-01-15 01:43:00,
2013-01-14 17:53:00,33.0,-99.9,-100.00,North,-999,-999.0,-999.0,-999,-99.99,,,-99.99,,2013-01-15 01:53:00,
2013-01-14 18:03:00,-999.0,-99.9,-100.00,ENE,73,7.0,9.0,-999,-99.99,,,-99.99,,2013-01-15 02:03:00,
2013-01-14 18:12:00,-999.0,-99.9,-100.00,ENE,68,8.0,9.0,-999,-99.99,,,-99.99,,2013-01-15 02:12:00,
2013-01-14 18:23:00,33.0,-99.9,-100.00,ENE,67,10.0,11.0,-999,-99.99,,,-99.99,,2013-01-15 02:23:00,
2013-01-14 18:33:00,-999.0,-99.9,-100.00,ENE,68,8.0,9.0,-999,-99.99,,,-99.99,,2013-01-15 02:33:00,
2013-01-14 18:43:00,33.0,-99.9,-100.00,ENE,62,9.0,10.0,-999,-99.99,,,-99.99,,2013-01-15 02:43:00,
2013-01-14 18:53:00,33.0,-99.9,-100.00,ENE,75,7.0,10.0,-999,-99.99,,,-99.99,,2013-01-15 02:53:00,
2013-01-14 19:03:00,-999.0,-99.9,-100.00,ENE,67,9.0,11.0,-999,-99.99,,,-99.99,,2013-01-15 03:03:00,
2013-01-14 19:12:00,33.0,-99.9,-100.00,ENE,64,9.0,11.0,-999,-99.99,,,-99.99,,2013-01-15 03:12:00,
2013-01-14 19:22:00,-999.0,-99.9,-100.00,ENE,66,9.0,11.0,-999,-99.99,,,-99.99,,2013-01-15 03:22:00,
2013-01-14 19:33:00,-999.0,-99.9,-100.00,ENE,64,8.0,11.0,-999,-99.99,,,-99.99,,2013-01-15 03:33:00,
2013-01-14 19:43:00,-999.0,-99.9,-100.00,ENE,66,10.0,11.0,-999,-99.99,,,-99.99,,2013-01-15 03:43:00,
2013-01-14 19:53:00,33.0,-99.9,-100.00,ENE,69,9.0,11.0,-999,-99.99,,,-99.99,,2013-01-15 03:53:00,
2013-01-14 20:03:00,-999.0,-99.9,-100.00,ENE,71,9.0,11.0,-999,-99.99,,,-99.99,,2013-01-15 04:03:00,
2013-01-14 20:12:00,33.0,-99.9,-100.00,ENE,68,10.0,11.0,-999,-99.99,,,-99.99,,2013-01-15 04:12:00,
2013-01-14 20:22:00,-999.0,-99.9,-100.00,ENE,64,9.0,11.0,-999,-99.99,,,-99.99,,2013-01-15 04:22:00,
2013-01-14 20:33:00,-999.0,-99.9,-100.00,ENE,66,9.0,11.0,-999,-99.99,,,-99.99,,2013-01-15 04:33:00,
2013-01-14 20:43:00,33.0,-99.9,-100.00,ENE,67,9.0,11.0,-999,-99.99,,,-99.99,,2013-01-15 04:43:00,
2013-01-14 20:53:00,33.0,-99.9,-100.00,ENE,69,8.0,10.0,-999,-99.99,,,-99.99,,2013-01-15 04:53:00,
2013-01-14 21:04:00,-999.0,-99.9,-100.00,ENE,68,9.0,10.0,-999,-99.99,,,-99.99,,2013-01-15 05:04:00,
2013-01-14 21:12:00,-999.0,-99.9,-100.00,ENE,71,8.0,10.0,-999,-99.99,,,-99.99,,2013-01-15 05:12:00,
2013-01-14 21:23:00,34.0,-99.9,-100.00,ENE,70,9.0,11.0,-999,-99.99,,,-99.99,,2013-01-15 05:23:00,
2013-01-14 21:33:00,-999.0,-99.9,-100.00,ENE,73,9.0,11.0,-999,-99.99,,,-99.99,,2013-01-15 05:33:00,
2013-01-14 21:43:00,-999.0,-99.9,-100.00,ENE,71,10.0,12.0,-999,-99.99,,,-99.99,,2013-01-15 05:43:00,
2013-01-14 21:53:00,33.0,-99.9,-100.00,ENE,70,9.0,11.0,-999,-99.99,,,-99.99,,2013-01-15 05:53:00,
2013-01-14 22:03:00,-999.0,-99.9,-100.00,ENE,70,10.0,11.0,-999,-99.99,,,-99.99,,2013-01-15 06:03:00,
2013-01-14 22:12:00,34.0,-99.9,-100.00,ENE,69,9.0,11.0,-999,-99.99,,,-99.99,,2013-01-15 06:12:00,
2013-01-14 22:22:00,-999.0,-99.9,-100.00,ENE,66,9.0,10.0,-999,-99.99,,,-99.99,,2013-01-15 06:22:00,
2013-01-14 22:33:00,-999.0,-99.9,-100.00,ENE,67,9.0,11.0,-999,-99.99,,,-99.99,,2013-01-15 06:33:00,
2013-01-14 22:43:00,-999.0,-99.9,-100.00,ENE,66,9.0,11.0,-999,-99.99,,,-99.99,,2013-01-15 06:43:00,
2013-01-14 22:53:00,34.0,-99.9,-100.00,ENE,70,9.0,12.0,-999,-99.99,,,-99.99,,2013-01-15 06:53:00,
2013-01-14 23:02:00,-999.0,-99.9,-100.00,ENE,67,9.0,10.0,-999,-99.99,,,-99.99,,2013-01-15 07:02:00,
2013-01-14 23:12:00,34.0,-99.9,-100.00,ENE,64,9.0,10.0,-999,-99.99,,,-99.99,,2013-01-15 07:12:00,
2013-01-14 23:22:00,-999.0,-99.9,-100.00,ENE,68,10.0,12.0,-999,-99.99,,,-99.99,,2013-01-15 07:22:00,
2013-01-14 23:33:00,-999.0,-99.9,-100.00,ENE,72,9.0,11.0,-999,-99.99,,,-99.99,,2013-01-15 07:33:00,
2013-01-14 23:43:00,-999.0,-99.9,-100.00,ENE,68,9.0,12.0,-999,-99.99,,,-99.99,,2013-01-15 07:43:00,
2013-01-14 23:53:00,34.0,-99.9,-100.00,ENE,66,10.0,12.0,-999,-99.99,,,-99.99,,2013-01-15 07:53:00,